[[{"header":{"parameterUnit":"m.s-1","parameterCategory":1,"la1":30.2991,"la2":30.254,"lo1":-89.0895,"lo2":-89.0444,"dy":0.0017,"dx":0.0017,"nx":28,"ny":28,"refTime":"2025-08-14T21:00:00:Z","depth":0,"parameterNumber":2,"parameterNumberName":"U-component_of_WINDS"},"data":[0,0,0,0,0,0,0,0,0,0,0,0,0,0,0,0,0,0,0,0,0,0,0,0,0,0,0,0,0,0,0,0,0,0,0,0,0,0,0,0,0,0,0,0,0,0,0,0,0,0,0,0,0,0,0,0,0,0,0.5851,0.5851,0,0.5911,0.5912,0.5913,0.5884,0.5882,0.588,0.5879,0.5941,0.5944,0.5947,0,0,0,0,0,0,0,0,0,0,0,0,0,0.5709,0.5712,0.5851,0.5851,0.5852,0.5911,0.5912,0.5913,0.5884,0.5882,0.588,0.5878,0.594,0.5943,0.5947,0,0,0,0,0,0,0,0,0,0,0,0,0,0.577,0.5713,0.585,0.5845,0.5845,0.5911,0.5912,0.5913,0.5884,0.5882,0.588,0.5877,0.5939,0.5943,0.5948,0.6023,0,0,0.5962,0.5964,0,0,0,0,0,0,0,0,0.5767,0.5776,0.5845,0.5845,0.5845,0.5887,0.5885,0.595,0.5885,0.5869,0.5879,0.5876,0.5925,0.5931,0.5947,0.6026,0.6028,0.5962,0.5965,0.5967,0.5968,0,0,0,0,0,0,0,0.5763,0.5773,0.5875,0.5846,0.5846,0.5839,0.5845,0.5897,0.5909,0.587,0.5868,0.5876,0.5925,0.5943,0.5948,0.6029,0.5962,0.5966,0.5969,0.5971,0.6174,0.6177,0,0,0,0,0,0,0.5759,0.577,0.5873,0.5876,0.58,0.5844,0.585,0.5876,0.5909,0.5911,0.5878,0.5874,0.5936,0.5943,0.595,0.6042,0.5967,0.5971,0.5974,0.6172,0.6175,0.6178,0,0,0,0,0,0,0.5756,0.5768,0.587,0.5823,0.5835,0.5848,0.5878,0.5879,0.5897,0.5914,0.5916,0.5894,0.5934,0.5944,0.6005,0.6043,0.5973,0.5978,0.6169,0.6173,0.6176,0.6225,0,0,0,0,0,0,0.5752,0.5767,0.5796,0.5823,0.5838,0.5925,0.588,0.5882,0.5905,0.5901,0.593,0.5933,0.5933,0.5999,0.601,0.6049,0.5981,0.6165,0.617,0.6175,0.622,0.623,0.6238,0,0,0,0,0,0.5747,0.5807,0.5798,0.581,0.5874,0.5927,0.5935,0.5934,0.5908,0.5937,0.5949,0.5932,0.6037,0.6005,0.6018,0.6058,0.6163,0.6169,0.6175,0.6216,0.6228,0.6238,0,0,0,0,0,0,0.5783,0.581,0.58,0.5871,0.5897,0.5922,0.5958,0.5947,0.5981,0.5975,0.5973,0.598,0.6044,0.6057,0.6021,0.6133,0.6096,0.6105,0.6123,0.6135,0.6144,0.614,0.5985,0,0,0,0,0,0.58,0.584,0.5862,0.5922,0.5935,0.5945,0.5968,0.5965,0.5992,0.6002,0.6018,0.6045,0.6084,0.611,0.6147,0.6221,0.6228,0.6255,0.6264,0.6272,0.628,0.6322,0.6334,0.6197,0.6197,0.6197,0,0,0.5833,0.5853,0.5879,0.593,0.5949,0.5992,0.5954,0.6,0.6032,0.6009,0.6069,0.6082,0.6111,0.618,0.6211,0.6193,0.6319,0.628,0.6285,0.6289,0.6329,0.6342,0.6354,0.6201,0.62,0.62,0,0,0.5917,0.5936,0.5989,0.601,0.604,0.6046,0.6059,0.6086,0.6094,0.6153,0.6138,0.6175,0.6242,0.6264,0.6284,0.6377,0.6364,0.6389,0.6438,0.6479,0.649,0.6499,0.6534,0.6546,0.6397,0.6397,0.6397,0,0.5956,0.6019,0.6017,0.6066,0.6089,0.607,0.6124,0.6144,0.6185,0.6202,0.6181,0.6265,0.6284,0.6358,0.6381,0.6397,0.6412,0.6386,0.6488,0.6498,0.6507,0.654,0.6553,0.64,0.64,0.6399,0.6399,0,0.6066,0.611,0.6149,0.619,0.6217,0.6268,0.6274,0.6302,0.6297,0.6305,0.6367,0.6388,0.643,0.6447,0.6442,0.6521,0.6509,0.6488,0.6451,0.6523,0.6554,0.6566,0.6404,0.6403,0.6402,0.6402,0,0,0.6174,0.6214,0.6229,0.6248,0.628,0.6315,0.6365,0.6406,0.643,0.6459,0.6501,0.6559,0.654,0.6563,0.6561,0.6596,0.667,0.6571,0.6572,0.659,0.676,0.6776,0.6791,0.6661,0.6663,0.6665,0.6758,0,0.6262,0.635,0.635,0.6431,0.6473,0.6457,0.65,0.6525,0.6534,0.6571,0.6581,0.6622,0.6594,0.6608,0.6642,0.6654,0.6704,0.6647,0.6701,0.6703,0.6695,0.6807,0.6824,0.691,0.677,0.6772,0.6773,0,0.6375,0.6409,0.6495,0.6523,0.654,0.6579,0.6618,0.6653,0.6681,0.6685,0.6711,0.6703,0.6754,0.6715,0.6786,0.6747,0.6769,0.6778,0.6782,0.6788,0.6743,0.6817,0.6938,0.6951,0.6792,0.679,0.6789,0,0.6448,0.6514,0.6575,0.6591,0.6624,0.6653,0.6668,0.6694,0.6719,0.6752,0.6768,0.6807,0.6828,0.6858,0.6861,0.6832,0.6934,0.6894,0.6939,0.6939,0.6962,0.6961,0.709,0.6974,0.6974,0.6974,0.6974,0,0.6546,0.6599,0.6608,0.6645,0.6705,0.6704,0.6763,0.6776,0.6799,0.6839,0.6826,0.6864,0.6865,0.6903,0.6906,0.6965,0.6975,0.698,0.698,0.6982,0.6981,0.6997,0.6991,0.6977,0.6977,0.6976,0.6975,0,0.6637,0.6645,0.671,0.6736,0.6744,0.6787,0.681,0.6846,0.6854,0.6904,0.6916,0.6929,0.6973,0.6979,0.7031,0.7033,0.7105,0.7098,0.7095,0.7095,0.714,0.7136,0.7284,0.7304,0.7175,0.7176,0.7177,0,0.67,0.6741,0.6772,0.6798,0.6815,0.6857,0.6883,0.6884,0.6911,0.6947,0.6978,0.7022,0.7057,0.7129,0.7143,0.7182,0.7177,0.7226,0.7183,0.7184,0.718,0.7178,0.7182,0.7235,0.7237,0.7238,0.7239,0,0.681,0.6813,0.685,0.689,0.6921,0.6952,0.6982,0.7003,0.7008,0.704,0.7085,0.7113,0.7166,0.721,0.7249,0.7265,0.7253,0.7252,0.7265,0.7267,0.7265,0.7268,0.7119,0.7249,0.7248,0.7247,0.7246,0.7246,0.689,0.6926,0.6955,0.6997,0.702,0.7048,0.7083,0.7096,0.7134,0.7178,0.7176,0.7227,0.7254,0.7307,0.7325,0.7365,0.7349,0.7367,0.7372,0.7377,0.7382,0.7258,0.7372,0.7371,0.7371,0.7371,0.7371,0,0.7001,0.7019,0.7058,0.71,0.7134,0.712,0.7152,0.7181,0.7226,0.7253,0.7288,0.7341,0.7384,0.7401,0.7443,0.7471,0.7467,0.7482,0.7481,0.7485,0.7393,0.7378,0.7485,0.7485,0.7485,0.7485,0.7485,0.7485,0.7063,0.7124,0.713,0.7202,0.7219,0.7269,0.7289,0.7314,0.7336,0.7396,0.7432,0.7443,0.7466,0.7509,0.7548,0.7552,0.7568,0.7586,0.7588,0.7502,0.7491,0.748,0.7466,0.759,0.759,0.7676,0.7677,0.7678]},{"header":{"parameterUnit":"m.s-1","parameterCategory":1,"la1":30.2991,"la2":30.254,"lo1":-89.0895,"lo2":-89.0444,"dy":0.0017,"dx":0.0017,"nx":28,"ny":28,"refTime":"2025-08-14T21:00:00:Z","depth":0,"parameterNumber":3,"parameterNumberName":"V-component_of_WINDS"},"data":[0,0,0,0,0,0,0,0,0,0,0,0,0,0,0,0,0,0,0,0,0,0,0,0,0,0,0,0,0,0,0,0,0,0,0,0,0,0,0,0,0,0,0,0,0,0,0,0,0,0,0,0,0,0,0,0,0,0,1.0898,1.09,0,1.1023,1.1025,1.1026,1.1046,1.1044,1.1043,1.1042,1.1166,1.117,1.1174,0,0,0,0,0,0,0,0,0,0,0,0,0,1.067,1.0674,1.0898,1.09,1.0901,1.1023,1.1025,1.1027,1.1046,1.1044,1.1043,1.1042,1.1164,1.1169,1.1175,0,0,0,0,0,0,0,0,0,0,0,0,0,1.0779,1.0675,1.0898,1.0926,1.0929,1.1023,1.1025,1.1027,1.1046,1.1044,1.1043,1.1041,1.1163,1.1169,1.1175,1.1248,0,0,1.1195,1.1198,0,0,0,0,0,0,0,0,1.0773,1.0788,1.092,1.0924,1.0928,1.1017,1.099,1.1101,1.1046,1.1002,1.1042,1.104,1.1117,1.1127,1.1154,1.1254,1.1259,1.1196,1.12,1.1202,1.1204,0,0,0,0,0,0,0,1.0765,1.0782,1.0948,1.0922,1.0927,1.093,1.0944,1.1011,1.1067,1.1005,1.1007,1.1022,1.1119,1.1148,1.1157,1.1261,1.1195,1.1201,1.1205,1.1208,1.1423,1.1425,0,0,0,0,0,0,1.0754,1.0776,1.0944,1.0951,1.0845,1.0935,1.0951,1.099,1.1066,1.1077,1.1023,1.1022,1.1138,1.115,1.1162,1.125,1.1202,1.1208,1.1212,1.1422,1.1424,1.1426,0,0,0,0,0,0,1.0749,1.0768,1.0939,1.0864,1.0886,1.0941,1.0985,1.0994,1.1023,1.108,1.1089,1.1043,1.1137,1.1153,1.1226,1.1255,1.1211,1.1217,1.1419,1.1422,1.1425,1.1428,0,0,0,0,0,0,1.0742,1.0767,1.0796,1.0865,1.089,1.1003,1.0987,1.0997,1.1034,1.1034,1.1101,1.111,1.1137,1.1216,1.1233,1.1263,1.1222,1.1417,1.1421,1.1424,1.1426,1.1431,1.1435,0,0,0,0,0,1.0734,1.0792,1.0798,1.0818,1.0929,1.1005,1.1019,1.105,1.1037,1.1066,1.1102,1.1108,1.1249,1.1224,1.1242,1.1275,1.1415,1.142,1.1424,1.1424,1.143,1.1435,0,0,0,0,0,0,1.0725,1.0802,1.0809,1.0892,1.0941,1.1008,1.1046,1.1056,1.1109,1.1107,1.1141,1.1156,1.1227,1.1259,1.1229,1.1347,1.1331,1.1339,1.1324,1.1331,1.1335,1.1325,1.1228,0,0,0,0,0,1.0733,1.0789,1.0853,1.0919,1.0944,1.0991,1.1025,1.1044,1.1097,1.1117,1.1159,1.1208,1.1263,1.1299,1.1353,1.1431,1.1443,1.1462,1.1466,1.147,1.1476,1.1515,1.1523,1.1439,1.1439,1.1439,0,0,1.0749,1.0798,1.0831,1.0919,1.096,1.1015,1.1008,1.1068,1.1109,1.1126,1.1198,1.123,1.1287,1.1362,1.1397,1.139,1.1502,1.1475,1.1477,1.1481,1.152,1.1528,1.1535,1.1442,1.1442,1.1441,0,0,1.0806,1.0851,1.091,1.0951,1.1013,1.1043,1.1057,1.1122,1.1144,1.1217,1.123,1.1278,1.1373,1.1412,1.1445,1.1515,1.1521,1.1531,1.1555,1.1593,1.16,1.1606,1.1628,1.1636,1.1537,1.1537,1.1537,0,1.0818,1.0905,1.0938,1.0997,1.1034,1.1053,1.1111,1.1149,1.1225,1.1249,1.124,1.1358,1.1398,1.1481,1.1498,1.1524,1.1539,1.1523,1.1596,1.1603,1.1609,1.163,1.1639,1.1538,1.1538,1.1538,1.1538,0,1.0914,1.0974,1.1014,1.1087,1.1129,1.1187,1.1227,1.1264,1.128,1.131,1.1382,1.143,1.1493,1.1514,1.153,1.1599,1.1592,1.159,1.1573,1.1617,1.1637,1.1646,1.1539,1.1539,1.1539,1.1538,0,0,1.097,1.1061,1.1075,1.1107,1.1176,1.1222,1.1279,1.1342,1.1372,1.1423,1.1471,1.155,1.1547,1.1584,1.1604,1.1638,1.1686,1.1631,1.1633,1.1637,1.1761,1.1761,1.177,1.1692,1.1693,1.1695,1.1755,0,1.1034,1.1139,1.117,1.1258,1.1311,1.1329,1.1379,1.1425,1.1455,1.1502,1.1534,1.1588,1.1583,1.1604,1.1639,1.1673,1.1711,1.167,1.1733,1.1735,1.1716,1.1781,1.1782,1.1837,1.1764,1.1765,1.1766,0,1.1123,1.1176,1.1269,1.1329,1.1353,1.1397,1.1455,1.1502,1.1554,1.1572,1.1612,1.1629,1.1687,1.1668,1.1747,1.1718,1.1745,1.1766,1.1768,1.1774,1.1752,1.1786,1.1856,1.1863,1.178,1.1779,1.1778,0,1.115,1.1246,1.1313,1.134,1.1413,1.1443,1.1474,1.1525,1.156,1.161,1.1632,1.1688,1.1718,1.176,1.179,1.1775,1.1865,1.185,1.188,1.1879,1.1897,1.1895,1.1969,1.1918,1.1918,1.1918,1.1918,0,1.1217,1.1273,1.1326,1.1367,1.1429,1.1463,1.1522,1.1554,1.1598,1.1644,1.1663,1.1705,1.1743,1.1789,1.1813,1.1872,1.1886,1.1901,1.1906,1.1898,1.1896,1.1915,1.1911,1.192,1.1919,1.1919,1.1919,0,1.1258,1.1297,1.1371,1.1433,1.145,1.1492,1.1544,1.1583,1.1613,1.167,1.1686,1.1731,1.1787,1.1821,1.1891,1.1907,1.1971,1.1976,1.1954,1.1956,1.1983,1.1979,1.2071,1.2084,1.2026,1.2026,1.2027,0,1.1298,1.1341,1.1407,1.144,1.1472,1.1524,1.1559,1.1594,1.1629,1.169,1.1721,1.1778,1.1825,1.1912,1.195,1.2002,1.2007,1.2036,1.2015,1.2005,1.2005,1.2001,1.2004,1.2038,1.2039,1.2039,1.204,0,1.1362,1.1379,1.143,1.1487,1.1529,1.1575,1.1622,1.1647,1.1688,1.1727,1.1784,1.182,1.1892,1.1946,1.2002,1.2032,1.2041,1.2046,1.2055,1.2047,1.2031,1.2037,1.1961,1.2043,1.2043,1.2043,1.2043,1.2042,1.1402,1.144,1.1492,1.1548,1.1586,1.1628,1.1668,1.1702,1.1751,1.1812,1.1829,1.1888,1.1936,1.2012,1.2042,1.2087,1.2083,1.2097,1.21,1.2102,1.2102,1.2025,1.2098,1.2098,1.2097,1.2097,1.2097,0,1.1465,1.15,1.1551,1.1614,1.1657,1.1665,1.1716,1.175,1.1802,1.1847,1.1893,1.1957,1.2009,1.2051,1.2105,1.2132,1.2138,1.2145,1.2142,1.2148,1.2104,1.2089,1.2139,1.2139,1.2139,1.2139,1.2139,1.2139,1.1503,1.1567,1.1589,1.1671,1.1705,1.1763,1.1791,1.1829,1.1865,1.1936,1.198,1.2008,1.205,1.2106,1.2154,1.2165,1.2182,1.2188,1.2199,1.2156,1.2152,1.2147,1.2134,1.2192,1.2192,1.224,1.224,1.224]}]]